Weather History for Des Moines, IA

Change the Weather History Date:

Saturday, January 12, 2013

  Actual Average Record
Temperature  
Mean Temperature 35 °F 22 °F  
Max Temperature 53 °F 31 °F 60 °F (1928)
Min Temperature 16 °F 14 °F -29 °F (1912)
Degree Days  
Heating Degree Days 30 43  
Month to date heating degree days 426 509  
Since 1 July heating degree days 2577 2976  
Cooling Degree Days 0 0  
Month to date cooling degree days 0 0  
Year to date cooling degree days 0 0  
Moisture  
Dew Point 16 °F    
Average Humidity 70    
Maximum Humidity 85    
Minimum Humidity 55    
Precipitation  
Precipitation 0.00 in 0.03 in 2.13 in (1960)
Month to date precipitation 0.12 0.38  
Year to date precipitation 0.12 0.38  
Snow  
Snow 0.00 in 0.30 in 12.00 in (1890)
Month to date snowfall 0.1 3.1  
Since 1 July snowfall 15.6 15.0  
Snow Depth 0.00 in    
Sea Level Pressure  
Sea Level Pressure 29.97 in    
Wind  
Wind Speed 16 mph (WNW)    
Max Wind Speed 32 mph    
Max Gust Speed 37 mph    
Visibility 10 miles    
Events      
T = Trace of Precipitation, MM = Missing Value Source: NWS Daily Summary

Daily Weather History Graph

Daily Weather History Graph

Search for Another Location

Airport:

Trip Planner

Search our weather history database for the weather conditions in past years. The results will help you decide how hot, cold, wet, or windy it might be!

Date:

Astronomy

Jan. 12, 2013 Rise Set
Actual Time 7:39 AM CST 5:06 PM CST
Civil Twilight 7:09 AM CST 5:37 PM CST
Nautical Twilight 6:34 AM CST 6:11 PM CST
Astronomical Twilight 6:01 AM CST 6:45 PM CST
Moon 7:58 AM CST (1/12) 6:37 PM CST (1/12)
Length of Visible Light 10h 28m
Length of Day
9h 26m
New Moon, 1% of the Moon is Illuminated
Jan 12
New Moon
Jan 18
First Quarter
Jan 26
Full
Feb 3
Last Quarter
Feb 10
New

Hourly Weather History & Observations

Time (CST) Temp. Windchill Dew Point Humidity Pressure Visibility Wind Dir Wind Speed Gust Speed Precip Events Conditions
12:40 AM 42.1 °F 32.8 °F 37.0 °F 82% 29.63 in 9.0 mi WNW 21.9 mph 33.4 mph N/A   Overcast
12:52 AM 41.0 °F 31.6 °F 37.4 °F 87% 29.64 in 7.0 mi WNW 20.7 mph 29.9 mph N/A   Overcast
12:54 AM 39.9 °F 29.7 °F 36.0 °F 86% 29.66 in 7.0 mi WNW 23.0 mph 29.9 mph N/A   Overcast
1:01 AM 39.0 °F 29.3 °F 35.1 °F 86% 29.65 in 7.0 mi West 19.6 mph - N/A   Overcast
1:12 AM 37.4 °F 28.2 °F 33.8 °F 87% 29.66 in 7.0 mi West 16.1 mph - N/A   Overcast
1:54 AM 35.6 °F 23.2 °F 30.2 °F 81% 29.72 in 10.0 mi West 26.5 mph 29.9 mph N/A   Overcast
2:17 AM 35.1 °F 24.5 °F 28.9 °F 78% 29.75 in 10.0 mi WSW 18.4 mph - N/A   Overcast
2:54 AM 33.1 °F 20.6 °F 26.1 °F 75% 29.81 in 10.0 mi WSW 23.0 mph 31.1 mph N/A   Overcast
3:54 AM 30.9 °F 17.8 °F 21.9 °F 69% 29.85 in 10.0 mi West 23.0 mph 27.6 mph N/A   Mostly Cloudy
4:54 AM 28.0 °F 15.7 °F 19.0 °F 69% 29.90 in 10.0 mi West 17.3 mph 26.5 mph N/A   Overcast
5:41 AM 25.0 °F 10.9 °F 16.0 °F 69% 29.90 in 10.0 mi West 19.6 mph 25.3 mph N/A   Scattered Clouds
5:54 AM 25.0 °F 9.5 °F 14.0 °F 63% 29.94 in 10.0 mi WNW 24.2 mph 31.1 mph N/A   Partly Cloudy
6:54 AM 21.9 °F 8.2 °F 10.9 °F 63% 29.99 in 10.0 mi West 16.1 mph 27.6 mph N/A   Partly Cloudy
7:54 AM 21.0 °F 7.1 °F 10.0 °F 63% 30.01 in 10.0 mi West 16.1 mph - N/A   Partly Cloudy
8:54 AM 23.0 °F 10.1 °F 10.9 °F 60% 30.02 in 10.0 mi WNW 15.0 mph - N/A   Scattered Clouds
9:54 AM 24.1 °F 11.5 °F 12.9 °F 62% 30.04 in 10.0 mi West 15.0 mph - N/A   Mostly Cloudy
10:54 AM 25.0 °F 13.6 °F 14.0 °F 63% 30.04 in 10.0 mi WNW 12.7 mph - N/A   Mostly Cloudy
11:54 AM 27.0 °F 14.7 °F 12.9 °F 56% 30.05 in 10.0 mi WNW 16.1 mph - N/A   Overcast
12:54 PM 24.1 °F 10.6 °F 10.9 °F 57% 30.06 in 10.0 mi WNW 17.3 mph - N/A   Overcast
1:54 PM 24.1 °F 11.5 °F 10.9 °F 57% 30.06 in 10.0 mi NW 15.0 mph - N/A   Overcast
2:54 PM 23.0 °F 12.4 °F 10.0 °F 58% 30.07 in 10.0 mi NW 10.4 mph - N/A   Mostly Cloudy
3:44 PM 21.9 °F 8.7 °F 10.9 °F 63% 30.06 in 10.0 mi WNW 15.0 mph - N/A   Overcast
3:48 PM 21.2 °F 9.5 °F 10.4 °F 63% 30.05 in 10.0 mi NW 11.5 mph - N/A   Overcast
3:54 PM 23.0 °F 12.4 °F 10.0 °F 58% 30.09 in 10.0 mi NW 10.4 mph - N/A   Overcast
4:42 PM 21.9 °F 11.7 °F 10.9 °F 63% 30.05 in 10.0 mi NNW 9.2 mph - N/A   Overcast
4:54 PM 21.9 °F 10.4 °F 10.9 °F 63% 30.09 in 10.0 mi NW 11.5 mph - N/A   Overcast
5:54 PM 21.9 °F 9.8 °F 10.0 °F 60% 30.10 in 10.0 mi NW 12.7 mph - N/A   Overcast
6:54 PM 21.0 °F 8.1 °F 10.0 °F 63% 30.14 in 10.0 mi NW 13.8 mph - N/A   Overcast
7:19 PM 21.0 °F 9.3 °F 10.9 °F 65% 30.09 in 10.0 mi NNW 11.5 mph - N/A   Overcast
7:54 PM 19.9 °F 7.9 °F 10.0 °F 65% 30.11 in 10.0 mi NNW 11.5 mph - N/A   Overcast
8:54 PM 19.9 °F 7.3 °F 8.1 °F 60% 30.12 in 10.0 mi NW 12.7 mph - N/A   Overcast
9:54 PM 18.0 °F 2.2 °F 6.1 °F 60% 30.09 in 10.0 mi NW 18.4 mph - N/A   Scattered Clouds
10:54 PM 17.1 °F 2.0 °F 6.1 °F 62% 30.11 in 10.0 mi NW 16.1 mph - N/A   Partly Cloudy
11:09 PM 18.0 °F 2.2 °F 6.1 °F 60% 30.07 in 10.0 mi WNW 18.4 mph - N/A   Mostly Cloudy
11:54 PM 16.0 °F 0.6 °F 6.1 °F 65% 30.08 in 10.0 mi NNW 16.1 mph 20.7 mph N/A   Mostly Cloudy